• In Hungary
  • List of Countries
  • For 7 days
  • Water Temperature
  • Satellite Maps
  • Weather Map
  • News
  • Weather Widgets
  • user-avatar
    Login

    Hourly Weather Karbinci

    Today, 24 September, Monday

    Time Temperature Precipitation Wind Pressure Humidity
    00:00 +19°C° 0 mm 2 mps 727 mmHg 52%
    01:00 +19°C° 0 mm 2 mps 727 mmHg 54%
    02:00 +18°C° 0 mm 2 mps 726 mmHg 56%
    03:00 +18°C° 0 mm 2 mps 726 mmHg 58%
    04:00 +18°C° 0 mm 2 mps 726 mmHg 60%
    05:00 +19°C° 0 mm 2 mps 726 mmHg 56%
    06:00 +22°C° 0 mm 1 mps 726 mmHg 53%
    07:00 +23°C° 0 mm 1 mps 726 mmHg 49%
    08:00 +25°C° 0 mm 1 mps 726 mmHg 43%
    09:00 +28°C° 0 mm 2 mps 726 mmHg 37%
    10:00 +30°C° 0 mm 2 mps 726 mmHg 31%
    11:00 +31°C° 0 mm 3 mps 726 mmHg 29%
    12:00 +32°C° 0 mm 4 mps 726 mmHg 27%
    13:00 +33°C° 0 mm 5 mps 726 mmHg 26%
    14:00 +29°C° 0 mm 5 mps 726 mmHg 32%
    15:00 +26°C° 0 mm 6 mps 726 mmHg 39%
    16:00 +22°C° 0 mm 7 mps 727 mmHg 46%
    17:00 +19°C° 0 mm 6 mps 727 mmHg 52%
    18:00 +16°C° 0 mm 5 mps 728 mmHg 59%
    19:00 +13°C° 0 mm 5 mps 729 mmHg 65%
    20:00 +12°C° 0 mm 5 mps 730 mmHg 66%
    21:00 +11°C° 0 mm 4 mps 730 mmHg 68%
    22:00 +11°C° 0 mm 4 mps 731 mmHg 69%
    23:00 +10°C° 0 mm 4 mps 731 mmHg 70%

    Tomorrow, 25 September, Tuesday

    Time Temperature Precipitation Wind Pressure Humidity
    00:00 +10°C° 0 mm 4 mps 731 mmHg 71%
    01:00 +8°C° 0 mm 4 mps 731 mmHg 72%
    02:00 +8°C° 0 mm 4 mps 732 mmHg 73%
    03:00 +7°C° 0 mm 4 mps 732 mmHg 74%
    04:00 +8°C° 0 mm 3 mps 732 mmHg 75%
    05:00 +7°C° 0 mm 4 mps 733 mmHg 69%
    06:00 +8°C° 0 mm 4 mps 733 mmHg 64%
    07:00 +10°C° 0 mm 4 mps 734 mmHg 59%
    08:00 +12°C° 0 mm 5 mps 734 mmHg 49%
    09:00 +14°C° 0 mm 5 mps 734 mmHg 40%
    10:00 +16°C° 0 mm 5 mps 734 mmHg 30%
    11:00 +17°C° 0 mm 5 mps 734 mmHg 27%
    12:00 +19°C° 0 mm 5 mps 733 mmHg 25%
    13:00 +20°C° 0 mm 6 mps 733 mmHg 22%
    14:00 +19°C° 0 mm 6 mps 733 mmHg 24%
    15:00 +17°C° 0 mm 6 mps 733 mmHg 25%
    16:00 +17°C° 0 mm 6 mps 733 mmHg 26%
    17:00 +15°C° 0 mm 5 mps 733 mmHg 31%
    18:00 +12°C° 0 mm 4 mps 734 mmHg 36%
    19:00 +10°C° 0 mm 3 mps 734 mmHg 41%
    20:00 +9°C° 0 mm 3 mps 735 mmHg 44%
    21:00 +8°C° 0 mm 3 mps 735 mmHg 48%
    22:00 +7°C° 0 mm 2 mps 736 mmHg 51%
    23:00 +6°C° 0 mm 2 mps 736 mmHg 52%

    Day after tomorrow, 26 September, Wednesday

    Time Temperature Precipitation Wind Pressure Humidity
    00:00 +6°C° 0 mm 2 mps 736 mmHg 54%
    01:00 +5°C° 0 mm 2 mps 736 mmHg 55%
    02:00 +5°C° 0 mm 2 mps 736 mmHg 57%
    03:00 +4°C° 0 mm 2 mps 736 mmHg 58%
    04:00 +4°C° 0 mm 2 mps 736 mmHg 59%
    05:00 +5°C° 0 mm 2 mps 736 mmHg 55%
    06:00 +7°C° 0 mm 2 mps 737 mmHg 50%
    07:00 +8°C° 0 mm 2 mps 737 mmHg 46%
    08:00 +10°C° 0 mm 3 mps 737 mmHg 40%
    09:00 +12°C° 0 mm 3 mps 737 mmHg 35%
    10:00 +14°C° 0 mm 4 mps 737 mmHg 29%
    11:00 +15°C° 0 mm 4 mps 736 mmHg 27%
    12:00 +17°C° 0 mm 4 mps 736 mmHg 25%
    13:00 +17°C° 0 mm 5 mps 736 mmHg 22%
    14:00 +17°C° 0 mm 5 mps 735 mmHg 23%
    15:00 +16°C° 0 mm 5 mps 735 mmHg 24%
    16:00 +16°C° 0 mm 6 mps 735 mmHg 25%
    17:00 +14°C° 0 mm 5 mps 736 mmHg 31%
    18:00 +11°C° 0 mm 4 mps 736 mmHg 37%
    19:00 +9°C° 0 mm 3 mps 736 mmHg 43%
    20:00 +8°C° 0 mm 3 mps 737 mmHg 48%
    21:00 +7°C° 0 mm 3 mps 737 mmHg 52%
    22:00 +5°C° 0 mm 3 mps 737 mmHg 57%
    23:00 +5°C° 0 mm 2 mps 737 mmHg 58%

    27 September, Thursday

    Time Temperature Precipitation Wind Pressure Humidity
    00:00 +5°C° 0 mm 2 mps 737 mmHg 60%
    01:00 +4°C° 0 mm 2 mps 737 mmHg 62%
    02:00 +4°C° 0 mm 2 mps 736 mmHg 62%
    03:00 +4°C° 0 mm 2 mps 736 mmHg 62%
    04:00 +3°C° 0 mm 2 mps 736 mmHg 62%
    05:00 +5°C° 0 mm 2 mps 736 mmHg 56%
    06:00 +5°C° 0 mm 3 mps 736 mmHg 50%
    07:00 +8°C° 0 mm 3 mps 736 mmHg 45%
    08:00 +11°C° 0 mm 3 mps 735 mmHg 37%
    09:00 +13°C° 0 mm 4 mps 735 mmHg 29%
    10:00 +17°C° 0 mm 4 mps 735 mmHg 22%
    11:00 +17°C° 0 mm 5 mps 734 mmHg 19%
    12:00 +20°C° 0 mm 5 mps 733 mmHg 17%
    13:00 +21°C° 0 mm 6 mps 732 mmHg 15%
    14:00 +21°C° 0 mm 6 mps 732 mmHg 15%
    15:00 +20°C° 0 mm 5 mps 731 mmHg 16%
    16:00 +20°C° 0 mm 5 mps 731 mmHg 16%
    17:00 +17°C° 0 mm 4 mps 731 mmHg 22%
    18:00 +13°C° 0 mm 3 mps 731 mmHg 28%
    19:00 +10°C° 0 mm 3 mps 732 mmHg 33%
    20:00 +9°C° 0 mm 2 mps 732 mmHg 36%
    21:00 +8°C° 0 mm 2 mps 732 mmHg 38%
    22:00 +7°C° 0 mm 2 mps 732 mmHg 41%
    23:00 +7°C° 0 mm 2 mps 731 mmHg 42%

    28 September, Friday

    Time Temperature Precipitation Wind Pressure Humidity
    00:00 +7°C° 0 mm 2 mps 731 mmHg 42%
    01:00 +7°C° 0 mm 2 mps 731 mmHg 43%
    02:00 +6°C° 0 mm 2 mps 730 mmHg 42%
    03:00 +6°C° 0 mm 2 mps 730 mmHg 42%
    04:00 +6°C° 0 mm 2 mps 730 mmHg 42%
    05:00 +8°C° 0 mm 2 mps 730 mmHg 38%
    06:00 +9°C° 0 mm 2 mps 730 mmHg 34%
    07:00 +10°C° 0 mm 2 mps 730 mmHg 30%
    08:00 +14°C° 0 mm 2 mps 729 mmHg 25%
    09:00 +17°C° 0 mm 2 mps 729 mmHg 21%
    10:00 +19°C° 0 mm 2 mps 729 mmHg 16%
    11:00 +21°C° 0 mm 2 mps 729 mmHg 16%
    12:00 +23°C° 0 mm 2 mps 728 mmHg 16%
    13:00 +25°C° 0 mm 2 mps 728 mmHg 16%
    14:00 +25°C° 0 mm 2 mps 727 mmHg 17%
    15:00 +24°C° 0 mm 2 mps 727 mmHg 18%
    16:00 +24°C° 0 mm 2 mps 727 mmHg 20%
    17:00 +20°C° 0 mm 2 mps 727 mmHg 26%
    18:00 +18°C° 0 mm 1 mps 727 mmHg 31%
    19:00 +15°C° 0 mm 1 mps 727 mmHg 37%
    20:00 +14°C° 0 mm 1 mps 727 mmHg 40%
    21:00 +14°C° 0 mm 1 mps 727 mmHg 42%
    22:00 +13°C° 0 mm 1 mps 727 mmHg 45%
    23:00 +13°C° 0 mm 1 mps 727 mmHg 46%

    29 September, Saturday

    Time Temperature Precipitation Wind Pressure Humidity
    00:00 +12°C° 0 mm 1 mps 727 mmHg 47%
    01:00 +12°C° 0 mm 1 mps 727 mmHg 47%
    02:00 +12°C° 0 mm 1 mps 727 mmHg 48%
    03:00 +11°C° 0 mm 1 mps 727 mmHg 48%
    04:00 +11°C° 0 mm 1 mps 726 mmHg 49%
    05:00 +12°C° 0 mm 1 mps 727 mmHg 45%
    06:00 +14°C° 0 mm 1 mps 727 mmHg 42%
    07:00 +15°C° 0 mm 1 mps 727 mmHg 38%
    08:00 +18°C° 0 mm 1 mps 727 mmHg 34%
    09:00 +20°C° 0 mm 2 mps 727 mmHg 30%
    10:00 +23°C° 0 mm 2 mps 727 mmHg 26%
    11:00 +24°C° 0 mm 2 mps 727 mmHg 26%
    12:00 +25°C° 0 mm 2 mps 727 mmHg 25%
    13:00 +26°C° 0 mm 3 mps 726 mmHg 24%
    14:00 +26°C° 0 mm 3 mps 726 mmHg 25%
    15:00 +25°C° 0 mm 3 mps 726 mmHg 27%
    16:00 +25°C° 0 mm 3 mps 726 mmHg 28%
    17:00 +21°C° 0 mm 3 mps 727 mmHg 34%
    18:00 +19°C° 0 mm 2 mps 727 mmHg 39%
    19:00 +16°C° 0 mm 2 mps 727 mmHg 45%
    20:00 +15°C° 0 mm 2 mps 728 mmHg 47%
    21:00 +14°C° 0 mm 2 mps 728 mmHg 50%
    22:00 +13°C° 0 mm 2 mps 728 mmHg 52%
    23:00 +13°C° 0 mm 2 mps 728 mmHg 53%
    Show more